DELTA 1 DEB, 14458

Orbit data source: Space-Track

DELTA 1 DEB, 14458 is space debris in SSO originally from a launch on Sun, 05 Mar 1978 UTC launched from the Air Force Western Test Range (AFWTR). Debris objects in space refer to the collection of defunct objects orbiting the Earth. Examples of debris include non-operational satellites, rocket bodies, and fragments generated from explosions, collisions, or faulty payload assembly.

Loading next visibility...
Identifier
14458, 1978-026FY
Orbit
SSO
Country
Flag of USUS
Related business
Manufacturer
Unknown
Mission
Spacecraft
Bus & Motor
Unknown
Mass
Unknown
Launch date (UTC)
1978-03-05 (48 years ago)
Launch vehicle
Unknown
Launch site
Air Force Western Test Range (AFWTR)
Object type
Payload
Rocket body
Debris
Shape & HBR
Unknown shape, 0.1 m
Radar Cross Section
Medium (>0.1 m² and <1 m²)

Expand to show TLE details & history
Last TLE update: 2 days ago

TLE from 2 days ago
0 DELTA 1 DEB
1 14458U 78026FY  26171.33053987  .00000032  00000-0  44350-4 0  9995
2 14458  98.9578 115.8334 0070110  94.8970  56.1304 14.06978247211170
Epoch: 2026-06-20T07:55Z
TLE epoch observation values (Epoch: 2026-06-20T07:55:58.644Z)
Latitude
27.96996°
Longitude
-86.93142°
Altitude
845.064 km
Speed
7.447 km/s
True Right ascension
20h 02m 26s
True Declination
27° 49' 46"
Sunlit
Object was in full shadow at epoch
Visualization orbit readout
Latitude
Unknown
Longitude
Unknown
Altitude
Unknown
Speed
Unknown
Apparent Right ascension
Unknown
Apparent Declination
Unknown
Sunlit
N/A
Visualization observer readout
Local Sidereal Time
06:32:29
Azimuth
Unknown
Elevation
Unknown
Doppler factor
Unknown
Orbital elements
Apogee altitude
917.714 km
Perigee altitude
816.123 km
Semi-major axis
7,245.055 km
Eccentricity
0.00701
Inclination
98.9578°
RAAN
115.8334°
Arg. of periapsis
94.897°
True anomaly
56.80073°
Mean anomaly
56.1304°
Eccentric anomaly
56.46524°
Mean motion
3.5195 °/min
Orbital period
102.29 mins
BSTAR
0.00004435
Loading maneuver chart data...
Computing Atmospheric mass density...

Documentation

Showing up to 5 results
|